Brownsville, TX

6:59 AM CST on December 03, 2016 (GMT -0600)
Brownsville-South Padre I International

Weather History for KBRO - March, 2014

Change the Weather History Date:

Wednesday, March 12, 2014

  Actual Average Record
Temperature  
Mean Temperature 63 °F 68 °F  
Max Temperature 72 °F 78 °F 99 °F (1954)
Min Temperature 54 °F 59 °F 33 °F (1948)
Degree Days  
Heating Degree Days 2 2  
Month to date heating degree days 72 24  
Since 1 July heating degree days 796 527  
Cooling Degree Days 0 5  
Month to date cooling degree days 29 55  
Year to date cooling degree days 149 196  
Growing Degree Days 14 (Base 50)    
Moisture  
Dew Point 57 °F    
Average Humidity 71    
Maximum Humidity 100    
Minimum Humidity 41    
Precipitation  
Precipitation 0.00 in 0.04 in 4.79 in (2007)
Month to date precipitation 1.29 0.43  
Year to date precipitation 2.05 2.78  
Sea Level Pressure  
Sea Level Pressure 29.96 in    
Wind  
Wind Speed 12 mph (North)    
Max Wind Speed 25 mph    
Max Gust Speed 37 mph    
Visibility 8 miles    
Events      
T = Trace of Precipitation, MM = Missing Value Source: NWS Daily Summary

Daily Weather History Graph

Daily Weather History Graph

Search for Another Location

Airport or City:

Trip Planner

Search our weather history database for the weather conditions in past years. The results will help you decide how hot, cold, wet, or windy it might be!

Date:

Astronomy

Mar. 12, 2014 Rise Set
Actual Time 7:41 AM CDT 7:37 PM CDT
Civil Twilight 7:19 AM CDT 8:00 PM CDT
Nautical Twilight 6:52 AM CDT 8:26 PM CDT
Astronomical Twilight 6:25 AM CDT 8:53 PM CDT
Moon 4:24 PM CDT (3/12) 4:57 AM CDT (3/12)
Length of Visible Light 12h 41m
Length of Day
11h 55m
Waxing Gibbous, 85% of the Moon is Illuminated
Mar 12
Waxing Gibbous
Mar 16
Full
Mar 23
Last Quarter
Mar 30
New
Apr 7
First Quarter

Hourly Weather History & Observations

Time (CDT) Temp. Dew Point Humidity Pressure Visibility Wind Dir Wind Speed Gust Speed Precip Events Conditions
12:15 AM 60.8 °F 60.8 °F 100% 29.80 in 10.0 mi South 6.9 mph - N/A   Partly Cloudy
12:33 AM 60.8 °F 60.8 °F 100% 29.80 in 10.0 mi South 5.8 mph - N/A   Mostly Cloudy
12:53 AM 64.0 °F 63.0 °F 96% 29.79 in 8.0 mi South 5.8 mph - N/A   Overcast
1:15 AM 64.4 °F 64.4 °F 100% 29.79 in 1.8 mi South 6.9 mph - N/A   Overcast
1:53 AM 64.0 °F 64.0 °F 100% 29.79 in 1.0 mi South 6.9 mph - N/A   Mist
2:20 AM 64.4 °F 64.4 °F 100% 29.80 in 0.8 mi South 8.1 mph - N/A   Mist
2:53 AM 64.0 °F 64.0 °F 100% 29.79 in 0.8 mi South 9.2 mph - N/A   Mist
3:33 AM 64.4 °F 64.4 °F 100% 29.78 in 1.0 mi South 11.5 mph - N/A   Mist
3:53 AM 66.0 °F 66.0 °F 100% 29.78 in 1.2 mi South 10.4 mph - N/A   Overcast
4:53 AM 66.0 °F 66.0 °F 100% 29.78 in 2.5 mi SSW 10.4 mph - N/A   Overcast
5:08 AM 66.2 °F 66.2 °F 100% 29.79 in 3.0 mi SSW 16.1 mph - N/A   Overcast
5:53 AM 64.9 °F 64.9 °F 100% 29.80 in 9.0 mi SSW 8.1 mph - N/A   Overcast
6:53 AM 64.9 °F 64.0 °F 97% 29.82 in 10.0 mi South 11.5 mph - N/A   Overcast
7:53 AM 64.0 °F 64.0 °F 100% 29.84 in 6.0 mi South 6.9 mph - N/A   Overcast
8:16 AM 64.4 °F 64.4 °F 100% 29.86 in 1.8 mi South 9.2 mph - N/A   Overcast
8:44 AM 64.4 °F 62.6 °F 94% 29.95 in 3.0 mi North 13.8 mph 25.3 mph N/A   Overcast
8:53 AM 64.0 °F 64.0 °F 100% 29.96 in 8.0 mi North 12.7 mph 24.2 mph N/A   Mostly Cloudy
8:57 AM 64.4 °F 62.6 °F 94% 29.95 in 9.0 mi North 8.1 mph 24.2 mph N/A   Mostly Cloudy
9:06 AM 66.2 °F 64.4 °F 94% 29.97 in 10.0 mi North 11.5 mph 16.1 mph N/A   Partly Cloudy
9:53 AM 69.1 °F 63.0 °F 81% 29.99 in 10.0 mi NNE 13.8 mph 19.6 mph N/A   Clear
10:46 AM 66.2 °F 57.2 °F 73% 30.04 in 10.0 mi North 17.3 mph 26.5 mph N/A   Mostly Cloudy
10:53 AM 66.0 °F 53.1 °F 63% 30.04 in 10.0 mi North 20.7 mph 36.8 mph N/A   Mostly Cloudy
11:53 AM 66.0 °F 51.1 °F 59% 30.08 in 10.0 mi North 24.2 mph 32.2 mph N/A   Mostly Cloudy
12:03 PM 66.2 °F 50.0 °F 56% 30.10 in 10.0 mi North 21.9 mph 32.2 mph N/A   Partly Cloudy
12:53 PM 64.9 °F 48.0 °F 54% 30.11 in 10.0 mi North 20.7 mph 31.1 mph N/A   Mostly Cloudy
1:53 PM 69.1 °F 50.0 °F 51% 30.09 in 10.0 mi North 17.3 mph 28.8 mph N/A   Clear
2:53 PM 70.0 °F 48.9 °F 47% 30.09 in 10.0 mi North 18.4 mph 27.6 mph N/A   Clear
3:53 PM 71.1 °F 48.0 °F 44% 30.09 in 10.0 mi NNW 17.3 mph 26.5 mph N/A   Clear
4:53 PM 71.1 °F 46.0 °F 41% 30.08 in 10.0 mi North 11.5 mph 26.5 mph N/A   Clear
5:53 PM 69.1 °F 50.0 °F 51% 30.09 in 10.0 mi NNE 15.0 mph 23.0 mph N/A   Clear
6:53 PM 66.0 °F 48.0 °F 52% 30.11 in 10.0 mi NNE 9.2 mph 21.9 mph N/A   Clear
7:53 PM 62.1 °F 46.9 °F 58% 30.15 in 10.0 mi NNE 10.4 mph - N/A   Clear
8:53 PM 60.1 °F 46.9 °F 62% 30.18 in 10.0 mi North 6.9 mph - N/A   Clear
9:53 PM 57.9 °F 48.0 °F 70% 30.21 in 10.0 mi North 5.8 mph - N/A   Clear
10:53 PM 57.9 °F 48.0 °F 70% 30.23 in 10.0 mi North 6.9 mph - N/A   Clear
11:53 PM 55.9 °F 48.9 °F 77% 30.25 in 10.0 mi NNW 5.8 mph - N/A   Clear